Hlavní strana
METAR-TAF:

METAR-TAF

Letiště :

Mora–Siljan

Mora, Švédsko

zeměpisná šířka: 60-57-31N, zeměpisná délka: 14-30-40E, výška: 193 m

Aktuální stav počasí

Zpráva byla vytvořena před 18 minutami, v 03:50 UTC
Severní vítr 2 kt
Teplota -17°C
Vlhkost vzduchu 84%
Tlak 996 hPa
Viditelnost 10 km a více

METAR: ESKM 160350Z AUTO 35002KT 9999 NCD M17/M19 Q0996

Čas: 05:08 (04:08 UTC)


TAF: chybějící

Stav a předpovědi počasí z více než 4 000 letišť (zprávy METAR a TAF).

Červené a žluté tečky na mapě představují dostupné meteorologické stanice.

Když kurzor umístíte na tečku, zobrazí se název stanice.

Pak kliknutím zobrazíte stav a předpověď počasí.

Chcete-li změnit mapu, kliknutím na zelené tlačítko se znaménkem +mapu přiblížíte, kliknutím na zelené tlačítko se znaménkem – mapu oddálíte a kliknutím na zelené šipky přejdete na sousední mapy.


METAR-TAF: